Regional Weather Roundup
Issued by NWS Green Bay, WI

Home | Current Version | Previous Version | Text Only | Print | Product List | Glossary On
Versions: 1 2 3 4 5 6 7 8 9 10 11 12 13 14 15 16 17 18 19 20 21 22 23 24 25 26 27 28 29 30 31 32 33 34 35 36 37 38 39 40 41 42 43 44 45 46 47 48 49 50
000
ASUS43 KGRB 051711
RWRGRB

NORTH-CENTRAL AND NORTHEAST WISCONSIN REGIONAL WEATHER ROUNDUP
NATIONAL WEATHER SERVICE GREEN BAY WI
1200 PM CDT SUN JUL 05 2015

WIZ005-009-010>012-018-019-051800-
NORTH CENTRAL WISCONSIN

CITY           SKY/WX    TMP DP  RH WIND       PRES   REMARKS
IRONWOOD       MOSUNNY   79  63  57 SW13G20   29.90F
MANITOWISH WTR MOSUNNY   76  61  60 S13G20    29.98F
ARBOR VITAE    MOSUNNY   77  61  58 SW12      30.00S
EAGLE RIVER    PTSUNNY   75  59  57 SW7G23    30.01S
LAND O LAKES   MOSUNNY   77  59  53 S12G22    30.01S
RHINELANDER    MOSUNNY   77  60  55 SW14G21   30.02F
PHILLIPS       PTSUNNY   77  61  59 S13       29.98F
ANTIGO         PTSUNNY   75  63  67 SW14      30.05S
TOMAHAWK       SUNNY     76  60  57 S6        30.02F
MERRILL        MOSUNNY   77  62  58 S10       30.02F
$$

WIZ013-073-051800-
NORTHEAST WISCONSIN

CITY           SKY/WX    TMP DP  RH WIND       PRES   REMARKS
IRON MOUNTAIN  PTSUNNY   81  62  52 SW8G23    30.00S
MARINETTE      SUNNY     79  63  57 S10       30.01F
OCONTO         PTSUNNY   79  66  65 S9        30.02F
$$

WIZ017-030-035>037-045-051800-
CENTRAL WISCONSIN

CITY           SKY/WX    TMP DP  RH WIND       PRES   REMARKS
MEDFORD        MOSUNNY   75  62  62 S9G17     30.01F
WAUSAU         MOSUNNY   78  59  51 SW10      30.01F
MOSINEE        MOSUNNY   75  63  64 S9        30.04S
MARSHFIELD     MOSUNNY   79  62  56 S9        30.01F
WISC RAPIDS    PTSUNNY   79  62  56 SW9       30.04F
STEVENS POINT  MOSUNNY   76  59  54 SW13      30.03F
WAUPACA        MOSUNNY   82  62  52 SW7       30.04S
SHAWANO        MOSUNNY   81  63  54 SW7       30.04S
CLINTONVILLE   MOSUNNY   81  59  47 SW8G18    30.04S
$$

WIZ038-039-048-051-051800-
FOX VALLEY

CITY           SKY/WX    TMP DP  RH WIND       PRES   REMARKS
NWS GREEN BAY  MOSUNNY   79  63  57 S9        30.04F
APPLETON       PTSUNNY   77  59  53 SW9       30.06S
OSHKOSH        MOSUNNY   79  63  57 S9        30.05F
FOND DU LAC    MOSUNNY   78  63  59 SW13      30.06S
$$

WIZ022-050-052-051800-
EAST CENTRAL WISCONSIN

CITY           SKY/WX    TMP DP  RH WIND       PRES   REMARKS
STURGEON BAY   PTSUNNY   77  63  61 S12       30.06F
MANITOWOC      PTSUNNY   75  65  70 MISG      30.06S
SHEBOYGAN      MOSUNNY   79  62  56 SW9       30.07R
$$

LMZ563-521-522-541>543-051800-
LAKESHORE

STATION/POSITION TIME  TEMP    WIND        PRES    VSBY  WAVE
                       AIR SEA DIR/SP/G                  HT/PER
                 (UTC) (F)     (DEG/KT/KT) (MB)    (MI)  (FT/S)
SHEBOYGAN LKSHOR 1700   63     160/ 13/ 13 1018.4S
KEWAUNEE LKSHORE 1600   63     170/  9/ 10 1017.3R
ALGOMA MARINA    1611          200/  6/  8   N/A
NORTHPORT PIER   1600   66     140/  6/  9 1017.3R
N MID LAKE BUOY  1650   54 49  200/ 14/ 16 1017.3F         2/ 3
S GREEN BAY BUOY 1700   73 70  210/  8/ 10 1018.3
SISTER BAY LKSHO 1614   83        CALM       N/A
CHAMBERS ISLAND  1600   74     160/  4/ 11 1016.9S
MENOMINEE LKSHOR 1600   73     170/  7/  9 1017.6R
$$



USA.gov is the U.S. government's official web portal to all federal, state and local government web resources and services.